TimeHST,TemperatureF,Dew PointF,Humidity,Sea Level PressureIn,VisibilityMPH,Wind Direction,Wind SpeedMPH,Gust SpeedMPH,PrecipitationIn,Events,Conditions,WindDirDegrees,DateUTC
12:01 AM,73.4,66.2,78,30.02,10.0,North,5.8,-,N/A,,Mostly Cloudy,360,2012-11-25 10:01:00
12:20 AM,73.4,66.2,78,30.01,10.0,North,5.8,-,N/A,,Scattered Clouds,360,2012-11-25 10:20:00
12:27 AM,73.4,66.2,78,30.01,10.0,North,5.8,-,N/A,,Mostly Cloudy,360,2012-11-25 10:27:00
12:53 AM,73.0,66.0,79,30.00,10.0,North,4.6,-,N/A,,Scattered Clouds,360,2012-11-25 10:53:00
1:53 AM,75.0,66.9,76,30.00,10.0,NNE,8.1,-,N/A,,Partly Cloudy,30,2012-11-25 11:53:00
2:12 AM,73.4,66.2,78,30.00,10.0,NW,4.6,-,N/A,,Mostly Cloudy,310,2012-11-25 12:12:00
2:36 AM,71.6,66.2,83,30.00,10.0,NW,3.5,-,N/A,,Scattered Clouds,320,2012-11-25 12:36:00
2:53 AM,73.0,66.9,81,29.99,10.0,North,8.1,-,N/A,,Scattered Clouds,360,2012-11-25 12:53:00
3:53 AM,72.0,66.0,81,29.98,10.0,NNW,6.9,-,N/A,,Partly Cloudy,340,2012-11-25 13:53:00
4:53 AM,69.1,64.0,84,29.99,10.0,WNW,5.8,-,N/A,,Partly Cloudy,300,2012-11-25 14:53:00
5:53 AM,70.0,64.0,81,30.00,10.0,NW,4.6,-,N/A,,Clear,320,2012-11-25 15:53:00
6:53 AM,72.0,66.0,81,30.02,10.0,North,6.9,-,N/A,,Partly Cloudy,350,2012-11-25 16:53:00
7:53 AM,73.0,66.0,79,30.03,10.0,North,5.8,-,N/A,,Clear,360,2012-11-25 17:53:00
8:53 AM,77.0,66.9,71,30.04,10.0,North,9.2,-,N/A,,Clear,10,2012-11-25 18:53:00
9:16 AM,78.8,66.2,65,30.06,10.0,NNE,12.7,-,N/A,,Partly Cloudy,20,2012-11-25 19:16:00
9:53 AM,78.1,66.9,68,30.06,10.0,NNE,12.7,-,N/A,,Scattered Clouds,20,2012-11-25 19:53:00
10:53 AM,80.1,66.0,62,30.05,10.0,NE,18.4,-,0.00,,Scattered Clouds,40,2012-11-25 20:53:00
11:53 AM,80.1,66.0,62,30.02,10.0,NE,18.4,-,N/A,,Scattered Clouds,40,2012-11-25 21:53:00
12:53 PM,80.1,66.0,62,30.00,10.0,NE,19.6,-,N/A,,Scattered Clouds,40,2012-11-25 22:53:00
1:53 PM,80.1,64.0,58,29.97,10.0,NNE,17.3,-,N/A,,Scattered Clouds,30,2012-11-25 23:53:00
2:53 PM,78.1,64.0,62,29.96,10.0,NE,21.9,-,0.00,,Mostly Cloudy,40,2012-11-26 00:53:00
3:53 PM,78.1,64.0,62,29.96,10.0,NNE,21.9,27.6,N/A,,Overcast,30,2012-11-26 01:53:00
4:53 PM,77.0,63.0,62,29.98,10.0,NNE,20.7,28.8,N/A,,Overcast,30,2012-11-26 02:53:00
5:53 PM,75.9,64.0,67,30.00,10.0,NNE,21.9,-,N/A,,Overcast,20,2012-11-26 03:53:00
6:53 PM,75.9,62.1,62,30.01,10.0,NNE,21.9,26.5,N/A,,Partly Cloudy,20,2012-11-26 04:53:00
7:53 PM,75.0,63.0,66,30.04,10.0,NNE,20.7,-,0.00,,Scattered Clouds,20,2012-11-26 05:53:00
8:53 PM,75.0,63.0,66,30.04,10.0,NNE,17.3,-,N/A,,Partly Cloudy,30,2012-11-26 06:53:00
9:53 PM,75.0,63.0,66,30.04,10.0,NNE,18.4,-,N/A,,Scattered Clouds,20,2012-11-26 07:53:00
10:53 PM,75.0,64.0,69,30.04,10.0,NE,20.7,-,N/A,,Mostly Cloudy,40,2012-11-26 08:53:00
11:53 PM,75.0,64.0,69,30.04,10.0,NNE,20.7,-,N/A,,Scattered Clouds,30,2012-11-26 09:53:00